Regional Weather Roundup
Issued by NWS New Orleans/Baton Rouge, LA

Home | Current Version | Previous Version | Text Only | Print | Product List | Glossary On
Versions: 1 2 3 4 5 6 7 8 9 10 11 12 13 14 15 16 17 18 19 20 21 22 23 24 25 26 27
000
ASUS44 KLIX 061614
RWRLIX
NEW ORLEANS REGIONAL WEATHER ROUNDUP
NATIONAL WEATHER SERVICE NEW ORLEANS LA
1000 AM CST TUE DEC 06 2016

NOTE: "FAIR" INDICATES FEW OR NO CLOUDS BELOW 12,000 FEET WITH NO
      SIGNIFICANT WEATHER AND/OR OBSTRUCTIONS TO VISIBILITY.
      SKY/WX - SKY CONDITION AND SIGNIFICANT WEATHER.
      TMP - AIR TEMPERATURE.     DP    - DEWPOINT TEMPERATURE.
      RH  - RELATIVE HUMIDITY.   PRES  - PRESSURE.
      HI  - HEAT INDEX.          WCI   - WIND CHILL INDEX.

*  THESE STATIONS ARE NOT NWS OR FAA STATIONS AND ARE NOT UNDER
   NWS QUALITY CONTROL.

LAZ038-040-048-061>063-065>067-069-061700-
SOUTHEAST LOUISIANA

CITY           SKY/WX    TMP DP  RH WIND       PRES   REMARKS
N.O. AUDUBON   NOT AVBL
N.O. INTL ARPT CLOUDY    57  54  88 W8        29.95R
N.O. LAKEFRONT CLOUDY    58  52  80 W16       29.95R
N.O. DOWNTOWN*   N/A     58  51  78 VRB3      29.95R
RESERVE*       CLOUDY    58  53  84 W9        29.95S
SLIDELL        CLOUDY    58  52  80 VRB3      29.93R
BATON ROUGE    CLOUDY    54  51  90 W12       29.96R
BOOTHVILLE     MOSUNNY   58  53  84 W15G25    29.95R
BELLE CHASSE   CLOUDY    57  53  86 VRB6      29.95R
BOGALUSA*      CLOUDY    58  51  77 NW7G18    29.94R
GALLIANO*      CLOUDY    58  50  76 W9        29.96R
NEW ROADS*     CLOUDY    53  50  90 W8        29.97R
GONZALES*      CLOUDY    55  51  84 W10       29.95R
HAMMOND*       CLOUDY    55  50  82 NW9       29.95R
HOUMA*         CLOUDY    57  52  82 W12       29.96R
PORT FOURCHON* MOSUNNY   61  54  77 W14       29.96R

$$

MSZ070-080>082-061700-
SOUTHERN MISSISSIPPI

CITY           SKY/WX    TMP DP  RH WIND       PRES   REMARKS
MCCOMB         CLOUDY    52  49  89 W8        29.94R
GULFPORT       CLOUDY    59  54  83 NW12      29.91R
BILOXI         CLOUDY    60  57  89 VRB3      29.91R
PASCAGOULA     CLOUDY    60  53  77 W5        29.91R
STENNIS ARPT*  PTSUNNY   59  48  67 NW7       29.93R

$$

COASTAL OBSERVATIONS
LAKE AND NEARSHORE STATIONS

STATION/POSITION TIME  TEMP    WIND        PRES    WAVE
                       AIR SEA DIR/SP/G            HT/PER
                 (UTC) (F)     (DEG/KT/KT) (MB)    (FT/S)
PASCAGOULA       1548   60     270/ 11/ 17 1012.3
WAVELAND YACHT   1548   58 61  300/ 10/ 15 1013.1
GRAND ISLE       1548   59 66  300/ 11/ 15 1014.3
SOUTHWEST PASS   1548          330/  7/ 15   N/A
NEW CANAL        1548   57 62  270/  7/ 10 1013.1
SHELL BEACH      1548   57 63  270/ 12/ 14 1013.8

OFFSHORE STATIONS

STATION/POSITION TIME  TEMP    WIND        PRES    WAVE
                       AIR SEA DIR/SP/G            HT/PER
                 (UTC) (F)     (DEG/KT/KT) (MB)    (FT/S)
64 S DAUPHIN ISL 1550   64 75  270/ 21/ 25 1013.5    7/ 7

$$





USA.gov is the U.S. government's official web portal to all federal, state and local government web resources and services.